Meiringen, Switzerland 16 day weather forecast

Slopes altitude range 1060 m - 2435m

Number of lifts: 18 Pistes: 60km

In some cases the lift and piste totals shown are for the ski domain (e.g. Three Valleys) rather than individual resort (e.g. Courchevel)

Overview

The 16 day weather forecast is fully updated 4 times every day.

    • Wed 26 JUN 2019
    • Wed 26
    • 23C 32C
    • Thu 27 JUN 2019
    • Thu 27
    • 24C 32C
    • Fri 28 JUN 2019
    • Fri 28
    • 19C 26C
    • Sat 29 JUN 2019
    • Sat 29
    • 18C 28C
    • Sun 30 JUN 2019
    • Sun 30
    • 22C 30C
    • Mon 01 JUL 2019
    • Mon 01
    • 22C 31C
    • Tue 02 JUL 2019
    • Tue 02
    • 16C 18C
    • Wed 03 JUL 2019
    • Wed 03
    • 13C 23C
    • Thu 04 JUL 2019
    • Thu 04
    • 19C 27C
    • Fri 05 JUL 2019
    • Fri 05
    • 19C 28C
    • Sat 06 JUL 2019
    • Sat 06
    • 12C 19C
    • Sun 07 JUL 2019
    • Sun 07
    • 11C 22C
    • Mon 08 JUL 2019
    • Mon 08
    • 19C 27C
    • Tue 09 JUL 2019
    • Tue 09
    • 19C 27C
    • Wed 10 JUL 2019
    • Wed 10
    • 19C 27C
    • Thu 11 JUL 2019
    • Thu 11
    • 20C 28C

Date:

Time Type 0°C level Temp Chill Snow Cloud Speed Gust Dir Press
3:00 4612m 19°C 19_3 0cm 0% 3mph 4mph 1024mB
6:00 4609m 19°C 19_2 0cm 0% 2mph 2mph 1025mB
9:00 4622m 23°C 23_3 0cm 0% 3mph 3mph 1024mB
12:00 4642m 32°C 32_5 0cm 1% 5mph 3mph 1024mB
15:00 4646m 33°C 33_5 0cm 63% 5mph 4mph 1023mB
18:00 4655m 33°C 33_2 0cm 41% 2mph 3mph 1024mB
21:00 4636m 22°C 22_4 0cm 0% 4mph 5mph 1025mB
0:00 4605m 21°C 21_5 0cm 0% 5mph 5mph 1025mB
3:00 4600m 20°C 20_3 0cm 0% 3mph 4mph 1024mB
6:00 4564m 19°C 19_2 0cm 0% 2mph 2mph 1024mB
9:00 4538m 24°C 24_3 0cm 0% 3mph 3mph 1024mB
12:00 4571m 32°C 32_6 0cm 0% 6mph 6mph 1022mB
15:00 4584m 32°C 32_6 0cm 0% 6mph 6mph 1022mB
18:00 4592m 32°C 32_4 0cm 0% 4mph 10mph 1021mB
21:00 4621m 21°C 21_4 0cm 0% 4mph 11mph 1024mB
0:00 4615m 19°C 19_3 0cm 34% 3mph 5mph 1023mB
3:00 4590m 17°C 17_2 0cm 39% 2mph 3mph 1022mB
6:00 4569m 16°C 16_3 0cm 34% 3mph 4mph 1021mB
9:00 4594m 19°C 19_5 0cm 67% 5mph 4mph 1020mB
12:00 4664m 26°C 26_8 0cm 40% 8mph 8mph 1019mB
15:00 4741m 27°C 27_8 0cm 0% 8mph 10mph 1018mB
18:00 4788m 27°C 27_5 0cm 0% 5mph 10mph 1019mB
21:00 4807m 15°C 15_3 0cm 0% 3mph 3mph 1020mB
0:00 4852m 14°C 14_3 0cm 0% 3mph 3mph 1020mB
3:00 4847m 13°C 13_2 0cm 0% 2mph 3mph 1019mB
6:00 4859m 13°C 13_2 0cm 0% 2mph 3mph 1019mB
9:00 4894m 18°C 18_4 0cm 1% 4mph 2mph 1018mB
12:00 4892m 28°C 28_5 0cm 0% 5mph 4mph 1017mB
15:00 4896m 28°C 28_4 0cm 0% 4mph 4mph 1017mB
18:00 4866m 28°C 28_2 0cm 0% 2mph 2mph 1018mB
21:00 4854m 19°C 19_5 0cm 0% 5mph 5mph 1019mB
0:00 4776m 19°C 19_5 0cm 0% 5mph 6mph 1019mB
3:00 4732m 18°C 18_5 0cm 0% 5mph 6mph 1019mB
6:00 4651m 18°C 18_4 0cm 0% 4mph 5mph 1020mB
9:00 4615m 22°C 22_4 0cm 0% 4mph 8mph 1020mB
12:00 4604m 30°C 30_6 0cm 0% 6mph 8mph 1019mB
15:00 4559m 31°C 31_5 0cm 0% 5mph 5mph 1018mB
18:00 4513m 31°C 31_2 0cm 0% 2mph 3mph 1019mB
21:00 4517m 20°C 20_4 0cm 0% 4mph 5mph 1020mB
0:00 4460m 19°C 19_5 0cm 11% 5mph 5mph 1020mB
3:00 4423m 18°C 18_3 0cm 0% 3mph 4mph 1019mB
6:00 4389m 18°C 18_4 0cm 0% 4mph 5mph 1020mB
9:00 4379m 22°C 22_3 0cm 67% 3mph 6mph 1019mB
12:00 4329m 31°C 31_9 0cm 79% 9mph 11mph 1018mB
15:00 4297m 30°C 30_7 0cm 55% 7mph 9mph 1017mB
18:00 4249m 30°C 30_4 0cm 62% 4mph 5mph 1018mB
21:00 4262m 17°C 17_4 0cm 99% 4mph 5mph 1020mB
0:00 4172m 16°C 16_1 0cm 100% 1mph 1mph 1020mB
3:00 4159m 15°C 15_2 0cm 95% 2mph 2mph 1018mB
6:00 4145m 15°C 15_2 0cm 92% 2mph 3mph 1019mB
9:00 4170m 16°C 16_5 0cm 100% 5mph 6mph 1019mB
12:00 4213m 18°C 18_6 0cm 100% 6mph 7mph 1018mB
15:00 4120m 20°C 20_6 0cm 98% 6mph 8mph 1018mB
18:00 4108m 20°C 20_5 0cm 99% 5mph 10mph 1018mB
21:00 4103m 15°C 15_5 0cm 100% 5mph 12mph 1019mB
0:00 3999m 14°C 14_3 0cm 100% 3mph 8mph 1019mB
3:00 3937m 13°C 13_2 0cm 98% 2mph 4mph 1019mB
6:00 3897m 12°C 12_2 0cm 99% 2mph 3mph 1019mB
9:00 4005m 13°C 13_4 0cm 94% 4mph 4mph 1018mB
12:00 4009m 23°C 23_6 0cm 66% 6mph 5mph 1017mB
15:00 4018m 23°C 23_7 0cm 48% 7mph 6mph 1017mB
18:00 4093m 23°C 23_5 0cm 38% 5mph 8mph 1017mB
21:00 4042m 15°C 15_2 0cm 72% 2mph 3mph 1018mB
0:00 3981m 14°C 14_3 0cm 69% 3mph 3mph 1018mB
3:00 3909m 14°C 14_4 0cm 0% 4mph 4mph 1017mB
6:00 3968m 14°C 14_2 0cm 30% 2mph 2mph 1017mB
9:00 4010m 19°C 19_3 0cm 16% 3mph 3mph 1017mB
12:00 4041m 27°C 27_8 0cm 54% 8mph 12mph 1016mB
15:00 4064m 28°C 28_10 0cm 49% 10mph 15mph 1016mB
18:00 4088m 28°C 28_3 0cm 24% 3mph 4mph 1016mB
21:00 4006m 17°C 17_7 0cm 0% 7mph 7mph 1017mB
0:00 4033m 16°C 16_6 0cm 17% 6mph 7mph 1017mB
3:00 4054m 16°C 16_5 0cm 57% 5mph 6mph 1016mB
6:00 3998m 16°C 16_4 0cm 45% 4mph 6mph 1017mB
9:00 4028m 19°C 19_7 0cm 66% 7mph 18mph 1017mB
12:00 4012m 28°C 28_13 0cm 46% 13mph 23mph 1017mB
15:00 4035m 29°C 29_14 0cm 30% 14mph 26mph 1016mB
18:00 4053m 29°C 29_4 0cm 42% 4mph 8mph 1018mB
21:00 3995m 15°C 15_2 0cm 100% 2mph 2mph 1020mB
0:00 3947m 15°C 15_2 0cm 100% 2mph 3mph 1021mB
Afternoon 0.0416667mm 0.125 3538m 19°C 19_5 0cm 90% 5mph 4mph 1022mB
Morning 0mm 0 4030m 8°C 8_2 0cm 0% 2mph 3mph 1024mB
Afternoon 0mm 0 4483m 22°C 22_5 0cm 1% 5mph 4mph 1020mB
Morning 0mm 0 4408m 13°C 13_3 0cm 0% 3mph 4mph 1020mB
Afternoon 0mm 0.0625 4428m 27°C 27_5 0cm 20% 5mph 5mph 1017mB
Morning 0.0625mm 0.1875 4317m 17°C 17_4 0cm 26% 4mph 4mph 1018mB
Afternoon 0.291667mm 0.9375 4302m 27°C 27_7 0cm 23% 7mph 11mph 1017mB
Morning 0.583333mm 1.8125 4129m 16°C 16_5 0cm 67% 5mph 6mph 1019mB
Afternoon 0.416667mm 1.3125 4178m 27°C 27_5 0cm 46% 5mph 8mph 1016mB
Morning 0mm 0 4061m 16°C 16_4 0cm 49% 4mph 5mph 1016mB
Afternoon 0.145833mm 0.5 4138m 28°C 28_5 0cm 3% 5mph 5mph 1011mB
Morning 0.270833mm 0 3821m 13°C 13_7 0cm 91% 7mph 13mph 1011mB

16 day outlook at a glance

Forecast issued: 6/26/2019 7:49:01 AM

Chat

Your comments and questions. In a resort? Let us know what it's like!


Characters left 250

For terms and conditions see Readers Comments on the Cookie and privacy policy page.